Location: Helsinki
(60.1699°N, 24.9384°E)
Time: 00:10:34
(UTC+02:00)

Vanguard 2 Rocket - Pass Details

Date: 23 September 2023
Orbit: 553 x 3312 km, 32.9° (Epoch: 28 November)

Event Time Altitude Azimuth Distance (km) Brightness Sun altitude
Rises 15:30:25 0° 237° (WSW) 7,258 12.7 24.1°
Reaches altitude 10° 15:36:42 10° 227° (SW) 6,264 13.1 23.6°
Maximum altitude 15:50:28 25° 183° (S) 4,739 11.5 22.5°
Drops below altitude 10° 16:01:49 10° 137° (SE) 5,105 10.8 21.5°
Sets 16:06:12 0° 125° (SE) 5,710 10.8 21.1°
